Precipitable_Water
0.74 0.74 0.64 0.62 0.63 0.62 0.62 0.58 0.58 0.57 0.56 0.55 0.55 0.52 0.50 0.48 0.57 0.57 0.54 0.56 0.54 0.53 0.51 0.49 0.45 0.44 0.38 0.22 0.25 0.45 0.44 0.42 0.41 0.36 0.29 0.26 0.24 0.23 0.18 0.23 0.24 0.20 0.23 0.26 0.28 0.29 0.30
0.75 0.70 0.65 0.64 0.61 0.58 0.56 0.56 0.55 0.56 0.56 0.55 0.54 0.52 0.51 0.48 0.56 0.60 0.53 0.55 0.54 0.51 0.50 0.49 0.49 0.45 0.29 0.15 0.44 0.46 0.42 0.40 0.38 0.33 0.30 0.31 0.28 0.30 0.25 0.24 0.23 0.28 0.29 0.28 0.32 0.31 0.31
0.71 0.70 0.67 0.66 0.62 0.56 0.53 0.52 0.54 0.56 0.58 0.58 0.55 0.53 0.52 0.50 0.55 0.60 0.51 0.54 0.51 0.48 0.50 0.53 0.53 0.35 0.24 0.25 0.45 0.44 0.42 0.39 0.42 0.39 0.29 0.36 0.37 0.27 0.28 0.23 0.33 0.29 0.22 0.24 0.26 0.28 0.28
0.70 0.69 0.66 0.62 0.58 0.53 0.47 0.47 0.52 0.57 0.59 0.60 0.57 0.54 0.54 0.53 0.57 0.58 0.51 0.53 0.53 0.52 0.54 0.56 0.54 0.32 0.22 0.43 0.47 0.40 0.42 0.38 0.46 0.45 0.40 0.42 0.42 0.32 0.26 0.30 0.26 0.20 0.20 0.13 0.20 0.25 0.27
0.70 0.67 0.64 0.57 0.52 0.47 0.45 0.46 0.47 0.51 0.58 0.61 0.61 0.56 0.55 0.56 0.60 0.57 0.54 0.53 0.52 0.56 0.55 0.54 0.41 0.28 0.23 0.40 0.33 0.41 0.43 0.35 0.40 0.40 0.41 0.43 0.40 0.22 0.21 0.17 0.15 0.15 0.10 0.12 0.14 0.22 0.22
0.68 0.65 0.62 0.57 0.46 0.41 0.40 0.41 0.43 0.45 0.55 0.62 0.62 0.58 0.58 0.58 0.61 0.58 0.55 0.55 0.52 0.49 0.46 0.42 0.36 0.23 0.28 0.27 0.38 0.40 0.45 0.42 0.33 0.31 0.27 0.30 0.26 0.17 0.17 0.13 0.08 0.10 0.10 0.13 0.12 0.16 0.19
0.67 0.65 0.62 0.56 0.45 0.37 0.36 0.38 0.40 0.46 0.58 0.61 0.61 0.58 0.63 0.60 0.65 0.59 0.51 0.41 0.34 0.31 0.37 0.30 0.29 0.27 0.31 0.41 0.46 0.36 0.41 0.35 0.31 0.25 0.16 0.22 0.17 0.14 0.18 0.20 0.18 0.17 0.15 0.14 0.16 0.21 0.17
0.67 0.64 0.61 0.56 0.49 0.41 0.37 0.40 0.49 0.57 0.60 0.59 0.60 0.60 0.64 0.61 0.67 0.60 0.55 0.44 0.46 0.49 0.30 0.40 0.37 0.36 0.41 0.45 0.28 0.32 0.40 0.26 0.24 0.18 0.22 0.16 0.17 0.24 0.26 0.24 0.21 0.19 0.16 0.14 0.17 0.21 0.18
0.68 0.63 0.62 0.58 0.55 0.52 0.49 0.50 0.57 0.66 0.67 0.61 0.60 0.62 0.67 0.62 0.66 0.58 0.49 0.53 0.68 0.65 0.34 0.33 0.37 0.34 0.38 0.42 0.32 0.33 0.38 0.31 0.25 0.21 0.21 0.17 0.22 0.29 0.25 0.21 0.19 0.18 0.16 0.16 0.17 0.20 0.23
0.68 0.64 0.65 0.65 0.64 0.63 0.60 0.56 0.61 0.64 0.67 0.63 0.63 0.64 0.70 0.64 0.55 0.55 0.44 0.62 0.72 0.69 0.24 0.25 0.28 0.37 0.38 0.41 0.30 0.46 0.46 0.35 0.27 0.22 0.24 0.23 0.31 0.26 0.23 0.21 0.23 0.16 0.23 0.23 0.21 0.18 0.13
0.71 0.69 0.69 0.71 0.72 0.72 0.72 0.66 0.65 0.64 0.65 0.62 0.63 0.66 0.71 0.64 0.55 0.47 0.55 0.69 0.74 0.59 0.18 0.27 0.31 0.49 0.40 0.32 0.34 0.36 0.49 0.36 0.26 0.26 0.26 0.21 0.26 0.25 0.22 0.24 0.29 0.21 0.27 0.25 0.24 0.22 0.22
0.75 0.74 0.75 0.76 0.77 0.79 0.79 0.74 0.65 0.63 0.61 0.60 0.60 0.67 0.73 0.65 0.61 0.64 0.71 0.72 0.65 0.29 0.20 0.26 0.35 0.30 0.28 0.32 0.33 0.37 0.35 0.42 0.41 0.31 0.31 0.28 0.36 0.33 0.29 0.32 0.30 0.31 0.25 0.23 0.26 0.24 0.15
0.76 0.78 0.79 0.82 0.82 0.87 0.86 0.81 0.67 0.62 0.60 0.59 0.59 0.68 0.70 0.70 0.54 0.72 0.74 0.57 0.30 0.24 0.32 0.28 0.28 0.30 0.29 0.28 0.28 0.31 0.28 0.27 0.24 0.20 0.21 0.25 0.29 0.36 0.37 0.27 0.30 0.27 0.21 0.13 0.12 0.13 0.13
0.75 0.79 0.82 0.87 0.90 0.91 0.93 0.97 0.87 0.63 0.60 0.59 0.60 0.68 0.72 0.70 0.73 0.73 0.61 0.39 0.27 0.31 0.30 0.36 0.30 0.29 0.26 0.29 0.27 0.28 0.26 0.24 0.33 0.29 0.23 0.20 0.18 0.28 0.37 0.31 0.26 0.26 0.24 0.15 0.12 0.12 0.13
0.76 0.81 0.87 0.93 0.96 0.97 1.00 1.01 0.98 0.84 0.64 0.59 0.60 0.62 0.65 0.66 0.69 0.71 0.46 0.32 0.30 0.32 0.35 0.31 0.29 0.26 0.25 0.29 0.28 0.27 0.26 0.28 0.34 0.34 0.23 0.21 0.21 0.33 0.34 0.35 0.32 0.27 0.22 0.30 0.22 0.22 0.18
0.80 0.86 0.92 1.05 1.06 1.05 1.08 1.09 1.06 0.97 0.77 0.68 0.57 0.55 0.59 0.69 0.72 0.61 0.40 0.33 0.35 0.39 0.39 0.36 0.26 0.29 0.25 0.27 0.26 0.26 0.25 0.33 0.34 0.39 0.37 0.30 0.23 0.31 0.33 0.36 0.36 0.31 0.35 0.23 0.24 0.15 0.13
0.93 1.00 1.05 1.10 1.16 1.11 1.15 1.17 1.10 1.04 0.88 0.76 0.60 0.47 0.58 0.68 0.67 0.48 0.36 0.36 0.39 0.45 0.43 0.34 0.32 0.29 0.30 0.27 0.29 0.28 0.28 0.33 0.38 0.36 0.38 0.35 0.30 0.27 0.32 0.28 0.26 0.30 0.27 0.29 0.27 0.24 0.17
0.97 1.03 1.09 1.18 1.20 1.18 1.19 1.19 1.14 1.08 0.96 0.76 0.61 0.46 0.59 0.64 0.46 0.46 0.40 0.44 0.48 0.44 0.46 0.41 0.40 0.36 0.33 0.34 0.31 0.31 0.30 0.34 0.42 0.41 0.33 0.37 0.32 0.26 0.26 0.33 0.35 0.33 0.29 0.30 0.22 0.20 0.24
1.09 1.16 1.18 1.20 1.22 1.20 1.22 1.20 1.16 1.09 1.01 0.76 0.60 0.53 0.63 0.59 0.39 0.40 0.45 0.44 0.45 0.42 0.42 0.40 0.38 0.41 0.40 0.35 0.29 0.34 0.35 0.42 0.43 0.40 0.36 0.38 0.30 0.24 0.23 0.29 0.34 0.29 0.30 0.30 0.30 0.27 0.20
1.18 1.19 1.18 1.24 1.25 1.24 1.23 1.23 1.18 1.10 1.04 0.81 0.62 0.50 0.51 0.55 0.52 0.44 0.40 0.39 0.39 0.47 0.44 0.44 0.41 0.42 0.38 0.35 0.37 0.33 0.33 0.39 0.42 0.42 0.45 0.44 0.35 0.29 0.21 0.23 0.29 0.25 0.26 0.27 0.25 0.19 0.18
1.32 1.26 1.23 1.29 1.29 1.28 1.30 1.28 1.21 1.12 1.05 0.84 0.63 0.54 0.60 0.44 0.44 0.46 0.43 0.42 0.39 0.38 0.46 0.46 0.42 0.40 0.37 0.32 0.33 0.33 0.36 0.37 0.38 0.38 0.37 0.38 0.30 0.32 0.31 0.31 0.28 0.23 0.20 0.20 0.19 0.19 0.16
1.34 1.33 1.32 1.35 1.36 1.33 1.32 1.29 1.23 1.15 1.07 0.85 0.66 0.58 0.63 0.57 0.53 0.47 0.44 0.41 0.40 0.42 0.43 0.41 0.39 0.41 0.40 0.35 0.34 0.31 0.35 0.34 0.31 0.38 0.37 0.37 0.27 0.29 0.22 0.21 0.21 0.17 0.18 0.18 0.18 0.19 0.19
1.40 1.36 1.37 1.36 1.40 1.39 1.37 1.34 1.27 1.18 1.07 0.84 0.85 0.80 0.62 0.55 0.55 0.50 0.46 0.43 0.43 0.46 0.47 0.48 0.44 0.39 0.36 0.36 0.39 0.38 0.38 0.38 0.35 0.33 0.30 0.29 0.24 0.22 0.15 0.20 0.17 0.12 0.17 0.19 0.20 0.24 0.24
1.42 1.41 1.41 1.41 1.40 1.39 1.38 1.35 1.29 1.21 1.12 0.99 0.90 0.78 0.61 0.53 0.56 0.55 0.52 0.50 0.46 0.46 0.43 0.48 0.47 0.41 0.41 0.44 0.42 0.39 0.37 0.34 0.34 0.33 0.33 0.25 0.23 0.21 0.15 0.16 0.09 0.15 0.25 0.25 0.24 0.27 0.29
1.40 1.40 1.42 1.42 1.42 1.40 1.38 1.34 1.30 1.23 1.17 1.03 0.96 0.77 0.61 0.51 0.55 0.56 0.55 0.52 0.50 0.48 0.47 0.47 0.47 0.47 0.47 0.43 0.34 0.29 0.28 0.28 0.31 0.33 0.31 0.28 0.23 0.17 0.14 0.13 0.13 0.17 0.22 0.23 0.22 0.22 0.30
1.30 1.37 1.35 1.37 1.39 1.39 1.36 1.34 1.29 1.24 1.19 1.07 0.96 0.84 0.65 0.56 0.59 0.61 0.57 0.53 0.46 0.43 0.47 0.47 0.52 0.53 0.49 0.40 0.32 0.25 0.22 0.23 0.21 0.23 0.29 0.28 0.26 0.19 0.16 0.12 0.08 0.17 0.23 0.27 0.29 0.17 0.27
1.14 1.25 1.38 1.37 1.36 1.38 1.36 1.32 1.28 1.24 1.18 1.06 0.97 0.94 0.78 0.63 0.70 0.66 0.56 0.55 0.54 0.49 0.44 0.48 0.48 0.46 0.47 0.35 0.29 0.26 0.23 0.26 0.19 0.19 0.21 0.21 0.20 0.16 0.15 0.13 0.14 0.20 0.21 0.23 0.14 0.16 0.25
0.84 0.93 1.07 1.29 1.34 1.35 1.34 1.28 1.23 1.19 1.15 1.05 0.97 1.00 0.83 0.71 0.74 0.74 0.71 0.60 0.54 0.52 0.47 0.47 0.43 0.43 0.39 0.31 0.29 0.27 0.24 0.25 0.23 0.23 0.21 0.19 0.16 0.15 0.16 0.13 0.09 0.21 0.20 0.15 0.18 0.21 0.21
0.77 0.81 0.84 0.90 0.99 1.17 1.24 1.21 1.16 1.13 1.07 1.04 0.88 0.97 0.93 0.76 0.70 0.79 0.77 0.73 0.67 0.60 0.52 0.50 0.43 0.40 0.37 0.31 0.29 0.28 0.24 0.24 0.20 0.14 0.20 0.15 0.17 0.14 0.17 0.15 0.20 0.20 0.18 0.19 0.22 0.22 0.23
Wind_Speed
5 7 8 10 12 13 16 17 19 21 22 23 24 24 24 24 24 22 22 21 19 18 16 14 13 13 12 13 12 13 15 14 13 12 12 9 9 7 6 6 5 5 5 6 6 7 8
5 6 8 10 12 14 16 18 19 20 22 23 25 25 24 24 23 21 21 20 18 16 15 14 13 12 11 12 12 14 15 13 14 12 12 11 8 8 6 6 6 6 6 7 7 8 8
4 7 9 11 12 14 16 17 19 20 22 24 25 25 25 24 23 22 21 18 16 15 14 13 12 12 13 10 12 14 14 13 13 12 10 10 9 8 7 6 7 7 7 7 8 9 9
4 7 9 11 13 14 16 17 19 20 22 23 24 25 25 24 22 22 19 16 14 14 13 12 12 11 10 12 12 13 14 11 12 11 10 10 9 9 9 8 8 8 7 8 9 11 10
5 8 10 12 14 15 16 18 19 21 22 23 24 25 25 24 22 21 17 14 14 13 13 12 11 10 10 13 12 13 13 12 11 11 11 10 10 9 10 8 9 10 8 9 12 10 12
7 9 11 13 14 16 17 19 20 21 22 23 24 24 25 24 22 21 16 12 13 14 12 11 11 10 13 12 13 14 13 12 11 11 11 11 11 10 11 10 9 10 10 11 11 12 12
8 10 12 14 15 17 18 20 21 22 22 23 23 24 24 23 21 21 15 12 13 12 14 10 10 9 11 13 12 14 14 12 12 12 12 12 11 10 10 11 10 10 11 12 13 13 15
10 11 13 14 16 17 19 20 21 22 22 23 23 23 23 22 19 20 15 12 11 11 11 11 10 11 12 13 13 14 15 12 13 13 15 13 11 11 12 12 12 12 13 14 14 14 17
12 13 14 15 17 18 20 21 21 22 23 23 23 23 23 22 17 17 15 13 13 11 10 11 11 12 13 14 13 14 15 14 13 13 14 11 11 12 13 14 14 14 13 14 14 18 15
14 14 15 16 18 19 20 21 21 22 23 23 24 23 22 20 15 16 14 15 13 11 10 12 12 12 14 14 12 15 15 14 14 13 13 12 13 13 14 14 13 15 14 15 18 16 15
16 16 16 17 18 19 20 21 22 22 23 24 24 22 21 18 16 15 15 15 12 11 11 12 13 13 16 14 15 15 15 15 14 15 12 13 14 14 15 14 14 15 16 18 17 16 16
18 18 18 19 19 19 20 21 22 23 23 24 23 21 19 17 16 16 17 14 12 11 10 12 14 16 16 15 16 15 15 15 15 13 14 13 15 14 13 14 15 17 17 18 15 14 13
20 20 20 20 20 20 21 22 23 23 24 24 23 21 18 17 17 18 17 14 12 8 13 14 15 17 17 17 16 15 16 17 16 16 15 17 14 14 15 16 16 18 17 17 16 15 12
23 22 22 21 21 21 22 22 23 24 24 24 23 19 17 17 19 18 15 13 11 12 13 16 16 18 16 16 15 18 16 17 16 14 15 14 15 15 16 16 16 17 15 12 15 16 18
26 25 24 23 23 22 23 23 24 24 24 25 22 18 17 18 18 17 14 13 11 12 14 17 18 16 15 15 17 18 16 16 15 16 14 15 14 17 17 16 15 17 16 14 15 16 17
27 26 25 24 23 24 25 25 25 25 25 25 21 19 16 19 18 16 13 12 13 14 16 16 16 16 17 18 18 17 17 17 16 16 17 16 18 16 16 17 17 15 15 16 16 16 17
28 27 26 26 25 25 25 25 25 25 24 22 19 16 17 19 16 14 12 13 14 16 16 16 17 18 18 18 17 17 17 18 18 18 18 18 16 17 19 17 16 16 16 15 15 15 16
30 29 28 28 27 27 26 25 24 23 23 20 18 17 19 18 15 13 14 16 17 17 18 18 17 17 17 18 18 17 17 17 20 20 19 19 17 18 20 18 18 16 17 16 16 18 17
33 32 31 30 30 28 27 24 22 22 21 20 19 18 17 17 14 15 17 17 17 18 18 18 18 18 18 17 19 17 18 17 20 19 17 19 18 21 20 17 16 16 17 17 19 19 19
35 33 32 31 29 26 24 24 23 22 21 20 18 18 18 16 15 16 17 18 19 18 19 19 19 19 19 18 19 19 20 20 21 20 22 21 20 19 19 19 20 22 22 23 21 23 24
36 35 34 31 29 28 27 25 24 22 22 20 20 18 18 19 18 19 18 19 20 20 19 20 19 19 19 19 21 20 20 21 22 24 20 19 21 21 23 23 23 25 26 24 23 24 23
38 36 35 33 32 31 29 28 27 24 23 21 21 20 21 20 20 19 20 20 20 21 21 21 20 20 21 21 22 24 22 21 22 21 18 20 20 21 23 25 24 25 26 25 23 21 21
38 37 36 35 33 33 32 31 30 28 26 24 23 23 23 22 21 20 21 21 22 21 22 21 21 21 23 25 25 25 24 23 24 23 21 21 19 19 21 21 24 23 19 19 18 17 18
39 40 39 39 37 36 35 34 33 32 30 28 26 24 23 25 23 23 24 24 24 24 24 24 23 24 24 24 26 25 24 24 23 24 21 19 17 18 20 21 19 17 20 18 15 17 17
39 39 40 40 39 36 37 36 34 33 31 30 28 27 26 27 26 26 26 26 24 25 25 26 26 26 25 24 23 22 19 19 17 16 18 17 17 18 17 19 23 19 19 19 19 18 18
40 39 39 41 41 40 38 37 35 34 32 31 30 29 28 27 28 26 26 26 26 26 27 26 25 24 23 21 19 19 18 18 16 18 19 16 17 17 18 19 19 18 20 21 20 20 21
42 41 40 39 41 40 40 39 37 35 34 33 31 31 30 30 30 28 27 28 27 26 26 26 24 23 21 20 20 18 18 17 18 18 17 17 18 19 20 20 21 22 23 22 19 22 27
42 43 42 42 42 41 41 40 38 36 34 33 32 33 32 32 33 31 29 28 27 27 26 23 22 22 21 19 18 17 17 18 19 19 18 18 17 18 18 19 21 22 21 21 24 28 30
44 43 44 43 41 42 41 39 40 39 37 35 34 34 32 31 30 32 32 30 29 27 25 24 23 21 19 18 19 18 18 19 18 19 19 19 19 19 18 20 21 25 26 27 28 29 30
Wind_Direction
41 29 17 10 7 6 4 2 1 1 1 1 360 359 359 359 360 360 1 2 6 10 15 19 20 23 30 34 32 20 15 16 17 16 21 20 21 16 15 1 353 348 325 314 301 299 297
29 18 8 2 1 360 359 358 359 360 360 359 359 359 358 358 359 359 359 2 6 12 16 18 20 23 25 29 18 15 14 17 18 20 18 17 15 12 16 357 351 334 322 313 311 310 305
15 2 357 353 353 353 354 354 356 357 357 357 357 357 357 357 357 358 358 2 9 13 14 17 21 27 29 23 14 10 11 14 14 16 15 14 9 1 356 350 339 332 321 317 322 313 306
348 347 347 348 347 348 349 350 351 351 352 353 354 355 356 356 356 356 357 2 6 9 12 11 12 14 19 11 6 7 8 7 10 10 9 6 3 3 353 342 342 335 331 323 311 318 308
328 335 339 343 344 344 344 345 346 347 348 349 350 352 353 354 355 355 356 2 6 6 8 7 8 10 6 359 4 1 2 360 356 1 4 0 357 355 349 343 336 335 315 312 311 314 310
315 325 333 338 339 341 341 341 342 342 344 346 348 349 350 351 352 353 354 355 357 2 357 1 5 6 2 356 354 355 355 356 355 349 348 354 353 349 347 345 320 320 319 312 300 307 312
305 316 325 332 334 336 337 338 338 339 341 342 344 346 347 349 350 353 353 350 354 353 10 9 1 4 354 349 352 353 352 347 349 354 345 342 347 343 338 338 331 326 317 308 305 306 310
298 309 319 325 330 333 334 336 337 338 340 341 342 343 345 346 348 354 356 357 355 345 357 2 357 354 352 350 347 349 349 348 346 343 339 339 339 333 335 334 331 325 319 313 307 305 309
290 301 312 320 325 329 332 334 336 338 338 339 340 340 342 343 346 349 0 355 346 346 345 349 352 349 346 346 342 339 344 339 343 340 339 336 330 330 332 332 330 323 317 320 313 314 308
284 294 305 314 320 325 329 331 333 335 336 338 338 338 340 340 343 344 347 344 342 340 347 336 342 343 342 340 338 336 339 338 338 335 334 332 329 326 325 325 329 325 325 324 318 324 313
279 288 298 306 314 320 325 328 329 331 332 334 336 337 339 345 338 341 336 337 334 334 342 334 334 334 336 340 330 335 335 336 334 328 332 324 326 323 321 323 325 318 324 321 319 317 320
275 283 292 301 308 315 320 325 326 328 329 331 332 332 333 335 337 336 333 332 331 336 318 331 329 333 335 334 333 329 333 334 328 328 325 317 319 320 319 322 322 320 322 324 325 323 324
272 280 287 295 301 308 315 321 324 325 326 328 328 328 328 329 328 330 329 329 333 334 325 327 325 329 327 327 330 333 332 332 332 331 329 326 326 322 322 322 326 329 330 324 327 329 313
270 276 282 289 295 301 309 315 321 323 324 326 324 322 322 325 325 326 326 328 331 318 320 322 324 322 323 330 327 327 327 329 331 330 325 330 323 326 323 323 315 326 327 321 315 320 312
268 272 278 285 289 295 302 308 315 320 321 323 321 318 317 321 323 323 324 327 317 317 319 323 321 324 323 325 325 327 329 326 326 326 324 325 313 317 320 320 322 320 324 316 317 315 319
266 268 274 281 283 291 298 302 309 313 316 319 317 314 312 321 320 320 322 318 316 316 320 322 322 324 319 318 324 327 325 321 320 322 318 314 315 320 317 319 321 316 314 318 319 316 312
264 267 271 277 281 286 293 297 303 309 312 313 313 310 309 319 316 319 318 313 313 314 317 319 316 313 315 315 315 314 316 317 319 316 318 315 313 311 317 317 313 315 312 312 310 307 304
263 266 268 274 277 281 287 293 298 305 310 310 309 306 308 313 312 310 314 314 314 313 314 314 313 310 310 312 309 309 310 311 315 312 314 312 310 308 306 310 308 307 307 305 306 307 304
262 264 267 272 275 277 282 285 293 299 306 306 305 301 304 308 303 306 307 308 310 312 313 312 310 309 308 308 308 306 308 306 313 310 308 309 307 311 318 318 317 315 311 308 307 303 295
260 262 264 270 270 272 274 281 287 292 297 302 301 301 302 305 303 305 306 304 307 308 308 308 307 307 307 307 302 302 303 304 306 306 306 303 301 296 299 305 306 303 302 303 299 298 299
258 259 262 265 264 267 271 275 279 285 289 293 297 293 296 296 301 302 303 303 305 306 306 306 306 305 304 304 304 300 301 303 301 305 301 301 298 299 301 301 301 302 303 301 293 291 293
255 257 259 259 261 263 267 270 272 278 282 287 288 289 291 291 296 297 299 298 299 302 303 302 300 301 302 299 298 299 299 298 296 302 303 305 300 305 301 298 305 305 303 301 297 296 296
254 256 256 255 259 262 265 266 268 269 274 281 284 286 287 289 291 294 294 295 296 300 302 301 301 301 300 298 298 297 295 294 293 295 298 299 300 307 304 310 310 307 308 306 308 312 306
255 255 255 254 257 261 263 264 264 263 267 275 278 282 283 284 284 285 289 290 291 293 297 298 298 299 300 302 302 298 296 294 292 292 287 294 299 304 304 312 309 305 316 307 309 311 312
259 257 254 255 256 259 262 262 261 259 261 269 274 276 280 283 283 286 285 289 291 293 293 294 296 298 299 302 301 302 301 300 302 303 295 288 299 303 305 305 306 309 311 309 308 306 309
257 256 257 255 256 259 260 259 258 258 261 266 268 273 277 282 284 286 284 285 286 288 292 291 295 297 298 298 299 298 297 299 296 299 310 300 299 300 303 305 304 310 306 305 301 298 304
256 255 255 256 256 258 258 255 255 255 259 263 266 270 273 276 283 282 281 285 283 284 287 291 291 293 295 296 294 292 293 294 296 297 297 303 300 294 297 299 303 310 308 305 301 306 310
254 254 255 256 256 258 255 252 253 253 256 260 266 266 272 277 278 276 283 283 282 282 284 287 290 290 291 288 291 290 291 293 297 297 298 295 295 295 299 299 300 315 312 309 302 305 305
254 254 255 255 257 254 251 248 251 254 255 261 264 268 271 275 280 277 279 279 280 279 279 280 284 287 286 291 292 295 293 296 296 298 299 296 292 297 292 298 302 308 304 303 304 307 308